Location: Eschertshofen
(49.3064°N, 11.5756°E)
Time: 02:05:52
(UTC+00:00)

NOSS 2-2 (C) - Pass Details

Date: 18 September 2020
Orbit: 468 x 1740 km, 63.3° (Epoch: 19 October)

Event Time Altitude Azimuth Distance (km) Brightness Sun altitude
Rises 18:15:34 0° 196° (SSW) 2,506 6.7 -9.8°
Reaches altitude 10° 18:17:46 10° 186° (S) 1,623 5.6 -10.2°
Maximum altitude 18:20:54 32° 121° (ESE) 851 3.8 -10.7°
Drops below altitude 10° 18:24:21 10° 57° (ENE) 1,783 5.5 -11.2°
Sets 18:26:52 0° 48° (NE) 2,805 6.6 -11.6°
